ARIANE 2 DEB, 27034

Orbit data source: Space-Track

ARIANE 2 DEB, 27034 is space debris in HEO originally from a launch on Fri, 27 Jan 1989 UTC launched from the French Guiana (FRGUI). Debris objects in space refer to the collection of defunct objects orbiting the Earth. Examples of debris include non-operational satellites, rocket bodies, and fragments generated from explosions, collisions, or faulty payload assembly.

Loading next visibility...
Identifier
27034, 1989-006P
Orbit
HEO
Country
Flag of FRFR
Related business
Manufacturer
EADS/LV
Mission
Spacecraft
Bus & Motor
Unknown
Mass
Unknown
Launch date (UTC)
1989-01-27 (37 years ago)
Launch vehicle
Unknown
Launch site
French Guiana (FRGUI)
Object type
Payload
Rocket body
Debris
Shape & HBR
Unknown shape, 0.5 m
Radar Cross Section
Medium (>0.1 m² and <1 m²)

Expand to show TLE details & history
Last TLE update: 11 hours ago

TLE from 11 hours ago
0 ARIANE 2 DEB
1 27034U 89006P   25288.85938671 -.00000127  00000-0  35747-2 0  9990
2 27034   8.2938  22.4257 7117614 196.8958 269.0984  2.24869126199101
Epoch: 2025-10-15T20:37Z
TLE epoch observation values (Epoch: 2025-10-15T20:37:31.011Z)
Latitude
5.44588°
Longitude
89.31489°
Altitude
28,148.295 km
Speed
2.625 km/s
True Right ascension
04h 13m 17s
True Declination
5° 26' 21"
Sunlit
Object was in daylight at epoch
Visualization orbit readout
Latitude
Unknown
Longitude
Unknown
Altitude
Unknown
Speed
Unknown
Apparent Right ascension
Unknown
Apparent Declination
Unknown
Sunlit
N/A
Visualization observer readout
Local Sidereal Time
02:02:03
Azimuth
Unknown
Elevation
Unknown
Doppler factor
Unknown
Orbital elements
Apogee altitude
35,757.257 km
Perigee altitude
716.921 km
Semi-major axis
24,615.226 km
Eccentricity
0.71176
Inclination
8.2938°
RAAN
22.4257°
Arg. of periapsis
196.8958°
True anomaly
204.36219°
Mean anomaly
269.0984°
Eccentric anomaly
235.49271°
Mean motion
0.562 °/min
Orbital period
640.57 mins
BSTAR
0.0035747
Loading maneuver chart data...
Computing Atmospheric mass density...
Loading historical data...
Loading historical data...
Loading historical data...
Loading historical data...
Loading historical data...
Loading historical data...
Loading historical data...

Documentation

Showing up to 5 results
|